FW9659 Weather Reports


time (UTC)temp
C
wind
direction
speed
KPH
gust
KPH
rain 1hr
cm
rain 24hr
cm
rain mn
cm
humidity
%
barometer
mb
20211017151711 14 13 3.2 6.4 0.00 0.00 0.00 64 1026.0
20211017150154 13 55 1.6 4.8 0.00 0.00 0.00 66 1026.0
20211017144611 13 344 1.6 4.8 0.00 0.00 0.00 67 1025.9
20211017143049 12 308 1.6 4.8 0.00 0.00 0.00 69 1025.9
20211017141616 12 307 1.6 4.8 0.00 0.00 0.00 67 1025.7
20211017140105 11 359 1.6 4.8 0.00 0.00 0.00 71 1025.7
20211017134605 10 316 1.6 6.4 0.00 0.00 0.00 76 1025.6
20211017133137 9 314 1.6 6.4 0.00 0.00 0.00 78 1025.5
20211017131617 8 302 1.6 6.4 0.00 0.00 0.00 81 1025.5
20211017130052 7 320 1.6 4.8 0.00 0.00 0.00 83 1025.3
20211017124538 7 321 0.0 1.6 0.00 0.00 0.00 86 1025.2
20211017123157 6 315 1.6 3.2 0.00 0.00 0.00 91 1025.2
20211017121621 6 0 0.0 0.0 0.00 0.00 0.00 90 1025.0
20211017120124 6 0 0.0 1.6 0.00 0.00 0.00 88 1024.9
20211017114629 7 0 0.0 1.6 0.00 0.00 0.00 87 1024.8
20211017113124 7 316 0.0 1.6 0.00 0.00 0.00 85 1024.6
20211017111541 7 0 0.0 0.0 0.00 0.00 0.00 82 1024.6
20211017110120 7 0 0.0 1.6 0.00 0.00 0.00 81 1024.6
20211017104543 7 337 0.0 3.2 0.00 0.00 0.00 83 1024.6
20211017103111 7 288 0.0 1.6 0.00 0.00 0.00 86 1024.5
20211017101552 7 0 0.0 0.0 0.00 0.00 0.00 86 1024.4
20211017100211 7 0 0.0 1.6 0.00 0.00 0.00 85 1024.5
20211017094557 8 0 0.0 1.6 0.00 0.00 0.00 82 1024.5
20211017093047 8 349 0.0 3.2 0.00 0.00 0.00 79 1024.5
20211017091650 8 0 0.0 4.8 0.00 0.00 0.00 78 1024.3
20211017090110 8 18 1.6 4.8 0.00 0.00 0.00 78 1024.3
20211017084658 8 300 0.0 4.8 0.00 0.00 0.00 78 1024.3
20211017083039 8 0 1.6 3.2 0.00 0.00 0.00 78 1024.2
20211017081620 9 0 1.6 8.0 0.00 0.00 0.00 77 1024.2
20211017080059 9 359 3.2 6.4 0.00 0.00 0.00 77 1024.0
20211017074552 9 335 1.6 8.0 0.00 0.00 0.00 79 1024.1
20211017073103 8 1 1.6 4.8 0.00 0.00 0.00 80 1023.9
20211017071548 8 329 0.0 3.2 0.00 0.00 0.00 83 1024.0
20211017070111 8 9 0.0 1.6 0.00 0.00 0.00 85 1024.0
20211017064603 7 0 0.0 1.6 0.00 0.10 0.00 90 1024.1
20211017063043 7 0 0.0 0.0 0.00 0.10 0.00 89 1024.1
20211017061558 7 0 0.0 1.6 0.00 0.10 0.00 90 1024.0
20211017060053 7 0 0.0 0.0 0.00 0.10 0.00 91 1024.0
20211017054615 7 0 0.0 0.0 0.00 0.10 0.00 91 1023.8
20211017053133 7 0 0.0 0.0 0.00 0.10 0.00 90 1023.7
20211017051601 7 0 0.0 0.0 0.00 0.10 0.00 89 1023.8
20211017050138 8 0 0.0 1.6 0.00 0.10 0.00 90 1023.7
20211017044610 8 0 0.0 1.6 0.00 0.23 0.10 90 1023.8
20211017043048 8 0 0.0 0.0 0.00 0.23 0.10 90 1023.9
20211017041558 8 0 0.0 0.0 0.00 0.23 0.10 88 1023.8
20211017040058 8 0 0.0 0.0 0.00 0.23 0.10 88 1023.9
20211017034629 8 0 0.0 0.0 0.00 0.84 0.10 89 1023.7
20211017033054 9 0 0.0 4.8 0.00 0.84 0.10 87 1023.7
20211017031559 9 0 0.0 1.6 0.00 0.84 0.10 90 1023.7
20211017030059 9 0 0.0 1.6 0.00 0.84 0.10 88 1023.7
20211017024600 9 0 0.0 0.0 0.00 0.84 0.10 88 1023.5
20211017023112 9 0 0.0 1.6 0.00 0.84 0.10 87 1023.4
20211017021608 9 0 0.0 0.0 0.00 0.84 0.10 85 1023.5
20211017020047 9 0 0.0 0.0 0.00 0.84 0.10 84 1023.2
20211017014619 9 0 0.0 0.0 0.00 0.84 0.10 82 1023.2
20211017013104 10 0 0.0 0.0 0.00 0.84 0.10 81 1023.0
20211017011628 10 0 0.0 0.0 0.00 0.84 0.10 80 1022.9
20211017010138 10 0 0.0 0.0 0.00 0.84 0.10 79 1022.7
20211017004543 10 0 0.0 0.0 0.00 0.84 0.10 78 1022.6
20211017003115 10 0 0.0 0.0 0.00 0.84 0.10 76 1022.5
20211017001555 11 0 0.0 0.0 0.00 0.84 0.10 73 1022.5
20211017000115 11 0 0.0 0.0 0.00 0.84 0.10 69 1022.4
20211016234611 12 0 0.0 0.0 0.00 1.17 0.10 68 1022.3
20211016233054 12 147 0.0 1.6 0.00 1.17 0.10 66 1022.1
20211016231552 13 0 0.0 1.6 0.00 1.17 0.10 65 1022.0
20211016230100 14 0 0.0 3.2 0.00 1.17 0.10 62 1022.0
20211016224536 15 0 1.6 8.0 0.00 2.90 0.10 56 1022.1
20211016223057 15 87 0.0 8.0 0.00 2.90 0.10 56 1022.0
20211016221557 16 75 1.6 9.7 0.00 2.90 0.10 52 1022.0
20211016220103 16 0 1.6 11.3 0.00 2.90 0.10 50 1021.9
20211016214628 17 352 1.6 12.9 0.00 2.90 0.10 46 1021.9
20211016213125 17 114 3.2 12.9 0.00 2.90 0.10 45 1021.8
20211016211543 18 291 3.2 11.3 0.00 2.90 0.10 42 1021.8
20211016210134 18 36 4.8 14.5 0.00 2.90 0.10 41 1021.8
20211016204557 18 232 4.8 16.1 0.00 2.90 0.10 42 1021.8
20211016203057 18 143 6.4 19.3 0.00 2.90 0.10 42 1021.8
20211016201543 18 327 4.8 16.1 0.00 2.90 0.10 42 1021.6
20211016200123 18 322 3.2 11.3 0.00 2.90 0.10 43 1021.7
20211016194557 18 46 4.8 14.5 0.00 2.90 0.10 41 1021.7
20211016193040 18 38 4.8 17.7 0.00 2.90 0.10 43 1021.7
20211016191618 18 326 6.4 17.7 0.00 2.90 0.10 41 1021.5
20211016190203 18 25 4.8 20.9 0.00 2.90 0.10 40 1021.7
20211016184624 17 349 6.4 20.9 0.00 2.90 0.10 43 1021.7
20211016183116 17 288 4.8 19.3 0.00 2.90 0.10 45 1022.0
20211016181644 17 22 4.8 17.7 0.00 2.90 0.10 44 1022.0
20211016180136 17 70 6.4 14.5 0.00 2.90 0.10 44 1022.4
20211016174557 17 359 4.8 16.1 0.00 2.90 0.10 45 1022.5
20211016173125 17 24 1.6 12.9 0.00 2.90 0.10 48 1022.7
20211016171602 17 335 4.8 12.9 0.00 2.90 0.10 47 1022.7
20211016170100 17 1 3.2 17.7 0.00 2.90 0.10 48 1022.8
20211016164619 16 316 9.7 17.7 0.00 2.90 0.10 48 1023.0
20211016163049 16 39 4.8 14.5 0.00 2.90 0.10 50 1023.1
20211016161617 16 60 1.6 14.5 0.00 2.90 0.10 55 1023.1
20211016160122 16 37 4.8 19.3 0.00 2.90 0.10 55 1023.3
20211016154546 15 351 3.2 16.1 0.00 2.90 0.10 57 1023.1
20211016153054 15 264 1.6 14.5 0.00 2.90 0.10 65 1023.1